DLH3FT EDDM-EDDF

Flight info

Callsign DLH3FT
Flight time N/A
Altitude 24000
Route GIVMI6Q/08L GIVMI Y101 ERNAS T161 DEBHI DEBHI1B
Aircraft A321/M-SDE3FGHIRWY/LB1

Departure

Time N/A
Airport Munich Airport (EDDM)

Arrival

Time 2026-05-04 17:34
Airport Frankfurt Main Airport (EDDF)
Time Latitude Longitude Altitude Speed Heading
2026-05-04 17:05 48.90448 11.13620 20202 ft 414 kts 314°
2026-05-04 17:06 48.94708 11.07677 21116 ft 418 kts 314°
2026-05-04 17:06 48.96853 11.04680 21563 ft 420 kts 314°
2026-05-04 17:07 49.01182 10.98629 22449 ft 425 kts 314°
2026-05-04 17:07 49.02625 10.96607 22736 ft 426 kts 314°
2026-05-04 17:07 49.05551 10.92488 23297 ft 430 kts 314°
2026-05-04 17:07 49.07753 10.89378 23686 ft 433 kts 314°
2026-05-04 17:08 49.09967 10.86251 23921 ft 434 kts 314°
2026-05-04 17:08 49.14441 10.79927 23983 ft 441 kts 314°
2026-05-04 17:08 49.16663 10.76779 23983 ft 442 kts 314°
2026-05-04 17:09 49.18915 10.73586 23985 ft 442 kts 314°
2026-05-04 17:09 49.21174 10.70312 23983 ft 441 kts 313°
2026-05-04 17:09 49.23341 10.66995 23982 ft 441 kts 311°
2026-05-04 17:10 49.27546 10.60258 23981 ft 440 kts 310°
2026-05-04 17:10 49.33912 10.50015 23986 ft 441 kts 311°
2026-05-04 17:11 49.35978 10.46632 23988 ft 439 kts 307°
2026-05-04 17:11 49.37784 10.42904 23962 ft 432 kts 302°
2026-05-04 17:11 49.41225 10.35395 23965 ft 429 kts 302°
2026-05-04 17:12 49.42934 10.31641 23960 ft 429 kts 302°
2026-05-04 17:12 49.46343 10.24125 22998 ft 432 kts 302°
2026-05-04 17:13 49.50937 10.13990 20853 ft 425 kts 302°
2026-05-04 17:14 49.55832 10.03188 20164 ft 405 kts 302°
2026-05-04 17:14 49.57433 9.99625 19916 ft 403 kts 302°
2026-05-04 17:14 49.60609 9.92540 19437 ft 400 kts 302°
2026-05-04 17:15 49.62191 9.89015 19204 ft 399 kts 302°
2026-05-04 17:15 49.65306 9.82070 18462 ft 387 kts 301°
2026-05-04 17:16 49.68320 9.75324 17464 ft 376 kts 301°
2026-05-04 17:16 49.72646 9.65591 16023 ft 358 kts 301°
2026-05-04 17:17 49.74045 9.62434 15505 ft 354 kts 301°
2026-05-04 17:17 49.78170 9.53127 14020 ft 345 kts 301°
2026-05-04 17:18 49.79520 9.50074 13493 ft 343 kts 301°
2026-05-04 17:18 49.82194 9.44018 12499 ft 339 kts 300°
2026-05-04 17:19 49.84825 9.38034 11512 ft 333 kts 300°
2026-05-04 17:19 49.86805 9.31830 10907 ft 308 kts 282°
2026-05-04 17:20 49.87969 9.25719 10542 ft 288 kts 282°
2026-05-04 17:20 49.89102 9.19816 9816 ft 284 kts 283°
2026-05-04 17:20 49.90024 9.17102 9430 ft 290 kts 307°
2026-05-04 17:21 49.93546 9.14759 8643 ft 281 kts 359°
2026-05-04 17:21 49.97430 9.15279 7882 ft 279 kts
2026-05-04 17:22 49.99372 9.15613 7506 ft 281 kts
2026-05-04 17:22 50.01322 9.15954 7136 ft 282 kts
2026-05-04 17:23 50.07009 9.16980 6987 ft 272 kts
2026-05-04 17:23 50.08888 9.17324 6991 ft 272 kts
2026-05-04 17:23 50.12637 9.17604 6986 ft 266 kts 340°
2026-05-04 17:24 50.14202 9.16283 6985 ft 248 kts 310°
2026-05-04 17:24 50.16790 9.09766 6990 ft 236 kts 293°
2026-05-04 17:25 50.17228 9.07389 6990 ft 225 kts 261°
2026-05-04 17:25 50.16296 9.02931 6991 ft 208 kts 246°
2026-05-04 17:26 50.15297 8.98721 6734 ft 204 kts 247°
2026-05-04 17:26 50.13924 8.92854 5952 ft 181 kts 247°
2026-05-04 17:27 50.13088 8.89294 5435 ft 170 kts 247°
2026-05-04 17:27 50.12279 8.85853 4973 ft 169 kts 247°
2026-05-04 17:28 50.11471 8.82420 4492 ft 168 kts 247°
2026-05-04 17:29 50.10258 8.77280 3782 ft 168 kts 248°
2026-05-04 17:29 50.09058 8.72204 3063 ft 166 kts 248°
2026-05-04 17:30 50.07861 8.67154 2358 ft 165 kts 248°
2026-05-04 17:31 50.07072 8.63832 1908 ft 159 kts 249°
2026-05-04 17:31 50.06024 8.59424 1270 ft 138 kts 250°
2026-05-04 17:32 50.05359 8.56632 871 ft 138 kts 251°
2026-05-04 17:33 50.04362 8.52446 347 ft 124 kts 251°
2026-05-04 17:33 50.04119 8.51434 330 ft 74 kts 249°
2026-05-04 17:34 50.03782 8.50905 333 ft 12 kts 94°
2026-05-04 17:34 50.03805 8.51026 334 ft 12 kts 71°
2026-05-04 17:35 50.03909 8.51457 334 ft 16 kts 70°
2026-05-04 17:35 50.03994 8.51812 336 ft 18 kts 69°
2026-05-04 17:35 50.04039 8.52001 335 ft 19 kts 70°
2026-05-04 17:36 50.04084 8.52190 351 ft 19 kts 69°
2026-05-04 17:36 50.04129 8.52376 348 ft 18 kts 69°
2026-05-04 17:36 50.04173 8.52559 354 ft 18 kts 69°
2026-05-04 17:36 50.04220 8.52754 358 ft 22 kts 69°
2026-05-04 17:37 50.04276 8.52989 360 ft 23 kts 70°
2026-05-04 17:37 50.04330 8.53217 364 ft 21 kts 70°
2026-05-04 17:37 50.04381 8.53427 372 ft 22 kts 70°
2026-05-04 17:37 50.04405 8.53657 375 ft 22 kts 84°
2026-05-04 17:38 50.04421 8.53897 375 ft 23 kts 84°
2026-05-04 17:38 50.04438 8.54153 375 ft 24 kts 84°
2026-05-04 17:38 50.04454 8.54413 372 ft 21 kts 89°
2026-05-04 17:38 50.04410 8.54643 369 ft 21 kts 123°
2026-05-04 17:39 50.04339 8.54748 362 ft 0 kts 146°
2026-05-04 17:41 50.04322 8.54765 357 ft 8 kts 150°
2026-05-04 17:41 50.04233 8.54817 357 ft 17 kts 161°
2026-05-04 17:41 50.04113 8.54886 354 ft 20 kts 159°
2026-05-04 17:41 50.03986 8.54961 357 ft 20 kts 159°
2026-05-04 17:42 50.03865 8.55037 359 ft 17 kts 143°
2026-05-04 17:42 50.03872 8.55209 358 ft 18 kts 70°
2026-05-04 17:42 50.03906 8.55352 349 ft 13 kts 69°
2026-05-04 17:42 50.03938 8.55488 357 ft 14 kts 70°
2026-05-04 17:43 50.03975 8.55642 353 ft 16 kts 70°
2026-05-04 17:43 50.04012 8.55795 359 ft 11 kts 70°
2026-05-04 17:43 50.04040 8.55916 354 ft 12 kts 70°
2026-05-04 17:43 50.04072 8.56047 358 ft 13 kts 70°
2026-05-04 17:44 50.04106 8.56187 359 ft 14 kts 70°
2026-05-04 17:44 50.04142 8.56340 361 ft 15 kts 69°
2026-05-04 17:44 50.04180 8.56499 357 ft 16 kts 69°
2026-05-04 17:44 50.04218 8.56661 364 ft 16 kts 69°
2026-05-04 17:45 50.04256 8.56819 364 ft 15 kts 70°
2026-05-04 17:45 50.04295 8.56984 361 ft 17 kts 69°
2026-05-04 17:45 50.04337 8.57157 361 ft 17 kts 70°
2026-05-04 17:45 50.04380 8.57340 363 ft 19 kts 69°
2026-05-04 17:46 50.04427 8.57537 362 ft 20 kts 69°
2026-05-04 17:46 50.04475 8.57734 367 ft 20 kts 69°
2026-05-04 17:46 50.04522 8.57934 366 ft 20 kts 70°
2026-05-04 17:46 50.04622 8.58009 361 ft 15 kts 339°
2026-05-04 17:47 50.04733 8.57950 361 ft 17 kts 355°
2026-05-04 17:47 50.04810 8.58083 358 ft 18 kts 69°
2026-05-04 17:47 50.04855 8.58268 361 ft 19 kts 70°
2026-05-04 17:47 50.04901 8.58462 362 ft 20 kts 69°
2026-05-04 17:48 50.04950 8.58669 363 ft 16 kts 69°
2026-05-04 17:48 50.04978 8.58785 363 ft 9 kts 71°
2026-05-04 17:48 50.04951 8.58843 366 ft 5 kts 156°
2026-05-04 17:48 50.04931 8.58854 364 ft 2 kts 160°
2026-05-04 17:49 50.04921 8.58860 363 ft 1 kts 160°
2026-05-04 17:49 50.04917 8.58862 363 ft 1 kts 160°
2026-05-04 17:49 50.04910 8.58866 365 ft 1 kts 160°
2026-05-04 17:49 50.04909 8.58867 365 ft 0 kts 160°